ES'HAIL 2 (43700 NORAD) Tracking and Keplerian Element Data

This shows tracking and keplerian element data for the satellite.

Feedback or suggestion? Click here.




ElementValue
Catalog43700
NameES'HAIL 2
Epoch Orbit2050
Epoch Day160.07117792
Epoch Year2024
RAAN24.3808
Inclination0.0149
Eccentricity0.000161
Argument of Perigee92.7661
Mean Anonmoly191.2234
Mean Motion1.00273464
Decay Rate1.44E-06
L11 43700U 18090A 24160.07117792 .00000144 00000+0 00000+0 0 9996
L22 43700 0.0149 24.3808 0001610 92.7661 191.2234 1.00273464 20500



Live tracking and technical data element details for ES'HAIL 2 (NORAD 43700). ES'HAIL 2 can be tracked NOW for your location showing map with azimuth and elevation plus other details from your city location.







IsCatalogInMostPopularTable: catalog: 43700, numindb: 11067
Update: records affected: 1



GetName: 43700 ES'HAIL 2

Hit Count: updated at: Tue, 17 Sep 2024 12:58:01 GMT